Location: Bednik
(45.3500°N, 16.3833°E)
Time: 17:07:03
(UTC+00:00)

Cosmos 1656 - Pass Details

Date: 08 August 2020
Orbit: 798 x 849 km, 71.1° (Epoch: 24 September)

Event Time Altitude Azimuth Distance (km) Brightness Sun altitude
Rises 19:20:37 0° 332° (NNW) 3,327 8.1 -11.3°
Reaches altitude 10° 19:23:02 10° 331° (NNW) 2,398 7.2 -11.6°
Maximum altitude 19:28:29 72° 248° (WSW) 857 3.8 -12.4°
Enters shadow 19:33:40 12° 165° (SSE) 2,294 5.5 -13.1°
